Retour au catalogue

SITRO-AIS-20

ActifCommunicationsSSO
NORAD 61758·PAYLOAD·🇷🇺 Russia
Ce nom de satellite n'a pas encore été confirmé par des sources officielles.

Lancé Nov 4, 2024 depuis Vostochny Cosmodrome

Loading…

Prochains Passages (prochaines 24 heures)

TLE

FraisSource: Space-Track

Époque: Sep 14, 2026, 20:52 UTC

1 61758U 24199Z   26257.86987697  .00001981  00000-0  17088-3 0  9990
2 61758  97.3181  91.9017 0006919 120.4244 239.7664 14.98317363148563

Suivez SITRO-AIS-20 en temps réel avec AllMySat

Download on the App Store